Temperature
19 18 17 18 18 19 19 18 18 18 19 18 17 16 16 16 16 16 16 16 17 17 17 17 17 17 17 17 17 16 16 16 16 16 16 16 16 16 15 15 15 15 15 15
17 18 18 19 19 19 19 18 18 18 19 18 17 16 16 16 16 16 16 16 17 17 17 17 17 17 17 17 17 17 16 16 16 16 16 16 16 15 15 15 15 15 15 15
18 19 19 19 19 19 19 18 18 18 18 18 18 17 16 16 16 16 16 17 17 17 17 17 17 17 17 17 17 17 16 16 16 16 16 16 15 15 15 15 15 15 15 15
18 19 19 19 19 19 18 19 19 18 17 16 17 16 16 16 15 15 16 17 17 17 17 17 17 17 17 17 17 17 17 16 16 16 16 16 15 15 15 15 15 15 15 14
18 19 19 19 19 19 19 19 18 18 17 16 17 16 16 15 15 15 16 17 17 18 18 18 17 17 17 17 17 17 17 16 16 16 16 15 15 15 15 15 15 15 15 14
18 19 19 19 20 19 19 18 17 15 16 16 17 16 16 15 16 16 16 17 18 18 18 18 17 17 17 17 17 17 17 16 16 16 16 15 15 15 15 15 15 15 15 14
18 18 19 19 19 19 18 17 16 16 15 16 16 16 16 16 16 16 16 17 18 18 18 17 17 17 17 17 17 17 17 16 16 16 16 15 15 15 15 15 15 15 15 14
17 17 18 19 19 18 17 17 16 16 16 15 16 16 16 17 17 17 17 17 17 17 17 17 17 17 17 17 17 17 17 16 16 16 16 15 15 15 15 15 15 15 15 14
16 16 18 19 19 18 17 16 16 15 16 16 15 16 16 17 16 16 16 16 16 17 17 17 17 17 17 17 17 17 16 16 16 16 16 15 15 15 15 15 15 14 14 14
16 17 17 18 18 18 17 15 14 15 16 15 16 16 15 16 16 15 15 15 16 17 17 17 17 17 17 17 17 16 16 16 16 16 16 15 15 15 15 15 15 14 14 14
16 16 16 17 17 17 16 16 14 14 14 15 15 15 16 16 16 15 15 16 16 17 17 17 17 17 17 17 17 16 16 16 16 15 15 15 15 15 15 15 15 14 14 14
14 14 14 16 17 17 17 16 14 15 14 13 14 15 16 15 15 15 16 16 17 17 17 17 17 17 17 17 16 16 16 16 16 15 15 15 15 15 15 15 15 14 14 14
14 14 14 15 16 16 16 16 15 14 13 12 13 15 16 15 15 15 16 16 16 17 17 17 17 16 17 16 16 16 16 16 15 15 15 15 15 15 15 14 14 14 14 14
14 13 14 15 15 15 16 16 15 14 13 13 13 15 15 15 15 15 15 16 16 16 16 16 16 16 16 16 16 16 15 15 15 15 15 15 15 14 14 14 14 14 14 14
13 13 14 14 15 15 16 16 15 15 14 14 14 14 15 15 15 15 15 16 16 16 16 16 16 16 16 16 15 15 15 15 15 14 14 14 14 14 14 14 14 14 14 14
12 13 14 14 15 15 15 15 15 15 15 14 14 14 14 15 15 15 15 15 15 15 16 16 16 15 15 15 15 15 15 15 14 14 14 14 14 14 14 14 14 13 13 13
11 12 13 13 13 15 14 15 15 14 14 14 14 14 14 14 14 15 15 15 15 16 16 16 15 15 15 15 15 15 15 15 14 14 14 14 14 13 13 13 13 13 13 13
11 11 10 11 13 14 14 14 15 14 14 14 14 14 14 14 15 15 16 16 15 15 15 15 15 15 15 15 15 15 14 14 14 14 14 14 13 13 13 13 13 13 13 13
10 10 10 10 12 13 14 14 14 14 14 14 13 13 14 14 14 14 15 15 15 15 15 15 15 15 15 15 14 14 14 14 14 14 14 13 13 13 13 12 12 12 12 12
10 10 10 10 12 13 14 14 15 14 14 14 13 13 13 13 12 13 15 15 15 15 15 15 15 14 14 14 14 14 14 14 14 14 13 13 13 13 12 12 12 12 12 12
10 10 10 10 11 12 13 14 14 14 13 14 14 14 13 13 13 14 14 14 15 15 14 14 14 14 14 14 14 14 13 13 13 13 13 13 13 12 12 12 12 12 12 12
10 10 9 9 11 12 13 13 13 13 14 14 14 14 14 14 14 14 14 14 14 14 14 14 14 14 14 13 13 13 13 13 13 13 13 13 12 12 12 12 11 11 11 11
9 10 9 10 11 11 12 12 13 13 13 14 14 14 14 14 13 13 14 14 14 14 13 13 13 13 13 13 13 13 13 13 13 12 12 12 12 12 11 11 11 11 11 11
9 9 8 9 9 11 12 13 13 13 13 13 13 13 13 13 13 13 13 13 13 13 13 13 13 12 12 12 12 12 12 12 12 12 12 12 12 12 11 11 11 11 11 10
8 8 8 9 9 11 12 13 13 13 13 13 13 13 13 13 13 13 13 13 13 12 12 12 12 12 12 12 12 12 12 12 12 11 11 11 11 11 11 11 11 11 10 10
8 8 8 9 10 10 11 12 12 12 12 12 12 12 12 12 12 12 12 12 12 12 12 12 12 11 11 11 11 11 11 11 11 11 11 11 11 11 11 10 10 10 10 10
Wind_Speed
4 4 1 4 5 4 3 2 2 3 2 3 4 5 4 4 5 5 5 5 5 5 4 2 3 4 4 3 3 3 4 3 3 3 2 2 1 1 2 2 3 3 4 5
5 2 4 3 3 3 2 1 2 2 0 3 3 4 3 4 6 7 8 8 7 6 3 3 3 4 4 4 4 3 4 4 3 3 2 2 2 1 1 2 2 2 3 4
3 4 1 2 2 2 2 4 4 2 2 3 1 4 3 3 4 4 5 6 6 8 7 5 4 4 5 5 5 5 5 4 4 3 3 3 3 3 2 1 1 1 2 3
2 3 1 2 2 3 3 3 4 3 2 1 1 3 6 3 3 5 7 7 8 8 7 6 6 5 6 6 5 5 5 4 4 4 4 4 3 2 2 1 0 1 2 2
2 1 1 2 3 4 4 1 2 2 3 1 1 1 6 2 5 7 8 9 8 8 8 8 7 7 6 6 5 5 5 4 4 5 5 5 3 2 1 1 1 1 1 1
3 2 1 3 1 3 3 5 5 5 4 1 3 3 5 4 6 6 7 8 8 7 7 6 5 5 4 4 5 5 5 4 4 5 5 5 5 4 3 2 1 0 0 0
4 4 3 1 1 2 4 5 3 4 3 4 2 2 6 6 5 6 7 7 7 7 7 6 6 6 5 5 5 5 6 5 4 5 5 5 5 5 5 4 4 2 1 1
0 4 3 1 3 3 3 6 6 4 4 4 2 4 6 5 4 3 3 4 5 5 6 7 7 7 7 6 6 6 6 5 5 5 5 4 4 4 4 4 4 4 3 3
3 4 4 2 1 6 4 3 5 5 2 1 4 5 6 3 5 5 3 2 4 5 5 6 6 6 6 6 6 6 6 5 5 5 4 4 4 5 5 4 3 3 3 2
5 3 4 4 3 3 4 7 5 4 3 3 4 4 4 5 4 3 2 0 2 3 4 4 4 5 5 5 5 4 5 5 5 5 4 4 4 4 4 3 4 4 3 3
3 3 4 3 1 3 3 3 4 4 4 4 3 5 4 5 3 2 2 2 3 4 3 3 3 3 3 3 3 4 4 3 3 3 4 4 3 3 3 4 4 4 4 4
2 3 2 5 4 1 3 4 6 4 3 3 3 6 4 3 2 2 2 2 2 2 2 2 2 3 3 3 3 3 3 3 3 3 3 3 3 2 3 4 4 4 4 4
3 4 2 5 4 2 1 2 4 5 4 4 4 6 2 2 2 1 2 1 1 2 2 2 2 2 3 3 3 3 2 2 2 2 2 2 2 3 3 3 3 3 4 4
3 3 5 7 5 3 3 3 4 5 4 5 7 7 5 4 3 3 2 2 1 1 2 2 2 2 2 3 3 3 2 2 2 2 2 2 3 3 3 2 2 3 3 4
3 2 4 5 5 4 5 5 5 6 7 8 7 7 7 6 5 4 2 2 2 2 2 3 3 3 3 3 3 3 2 2 2 2 2 3 3 2 2 2 2 2 3 3
2 2 1 3 4 3 4 5 5 6 5 6 5 6 5 4 2 2 3 3 3 3 4 4 4 4 4 4 4 3 3 3 2 3 3 3 2 2 2 2 2 2 2 2
1 2 1 3 5 3 5 6 6 4 4 6 7 7 3 2 4 5 5 5 5 5 5 5 5 5 5 5 5 5 4 3 3 3 2 2 2 3 3 2 2 2 2 2
4 3 2 1 1 5 7 4 4 5 4 4 4 4 4 5 4 3 3 5 5 5 5 5 5 5 5 4 4 4 3 3 3 3 2 2 2 3 3 2 2 2 2 2
5 5 3 2 3 6 6 3 2 4 5 4 5 4 3 1 2 3 2 3 5 6 5 5 5 4 4 4 4 4 3 3 3 4 4 3 3 3 3 3 3 2 2 2
3 3 4 3 3 5 5 3 2 2 4 4 4 4 2 3 0 5 3 2 3 3 3 3 3 2 3 4 4 4 4 4 5 5 4 4 4 4 4 5 4 2 2 3
1 1 4 5 6 7 6 4 1 3 6 3 3 3 3 4 6 5 4 3 3 2 2 2 2 3 4 4 4 5 5 6 5 3 3 3 3 4 4 4 3 3 2 2
5 4 5 4 5 7 3 2 4 6 3 2 2 3 4 4 4 4 3 3 2 2 1 1 2 3 3 3 5 5 6 6 3 3 3 4 3 3 3 4 3 3 3 3
5 6 5 7 6 4 3 4 4 2 4 4 3 3 3 3 3 3 3 3 3 3 2 2 2 2 2 3 4 5 5 3 3 3 4 3 3 3 3 4 4 3 3 3
4 2 3 4 6 6 6 5 4 3 4 4 3 3 3 3 4 3 3 3 3 3 3 2 2 3 3 3 4 5 4 3 4 4 4 3 3 3 3 3 4 4 4 4
5 3 3 5 7 6 6 5 4 3 3 2 3 2 3 3 4 4 3 3 3 3 3 3 3 4 5 4 4 4 4 4 4 4 4 3 4 4 4 3 3 5 5 6
5 6 6 7 7 5 6 6 4 3 4 4 3 4 3 3 4 4 4 4 3 3 3 3 3 4 5 5 5 4 4 5 5 4 4 4 3 3 3 3 2 3 4 5
Wind_Direction
34 70 204 223 199 190 171 187 249 261 228 160 200 239 242 195 191 203 212 214 212 223 235 204 189 167 150 146 141 146 137 139 128 115 116 107 87 50 45 56 82 100 114 122
41 312 250 202 179 165 161 188 266 300 313 168 210 264 258 196 208 209 210 213 213 216 217 204 190 169 166 167 166 165 163 164 161 150 141 131 125 99 59 36 55 88 113 126
173 253 240 143 153 148 208 200 219 230 34 60 76 321 286 244 216 216 215 213 210 207 206 203 192 187 179 179 183 184 180 175 171 148 109 84 65 51 39 28 8 16 99 126
243 282 171 149 200 168 255 235 194 168 118 299 103 288 287 259 248 231 225 215 214 212 204 198 195 193 196 198 187 182 179 175 167 153 146 146 153 165 211 198 204 22 83 118
258 270 149 199 224 177 213 106 108 118 136 38 354 206 288 309 256 248 232 221 216 209 201 198 197 199 201 194 184 181 173 172 166 164 168 162 164 179 139 95 103 52 39 85
259 269 211 218 232 161 133 72 59 52 74 328 252 193 286 254 241 254 235 222 212 201 200 201 197 184 188 182 178 171 172 181 176 175 175 175 176 168 152 154 166 192 17 34
334 320 306 212 74 52 87 90 35 3 10 259 263 201 258 266 254 243 238 221 204 191 187 191 191 187 189 183 181 177 177 187 184 183 189 190 189 182 185 187 188 189 194 216
45 303 300 276 184 175 159 143 158 197 223 278 310 239 262 289 303 282 238 197 176 178 183 191 195 194 193 190 186 181 187 193 188 193 201 196 191 189 196 195 189 194 202 207
179 265 301 297 220 144 134 158 164 139 161 269 286 287 304 344 7 17 38 115 167 180 184 195 196 192 192 190 190 188 192 196 197 200 202 196 196 196 201 198 190 197 202 196
163 238 297 306 71 50 136 141 105 128 161 244 291 287 272 301 321 351 10 200 198 188 185 187 193 194 194 194 191 182 193 201 204 196 195 198 202 204 202 189 197 202 206 192
136 169 310 2 158 193 103 106 112 123 147 163 255 276 238 231 246 258 278 261 200 184 189 189 184 177 166 162 166 178 187 195 204 200 198 193 197 195 190 197 204 201 198 189
128 127 259 275 274 231 165 170 150 156 207 174 187 267 281 247 245 223 253 266 212 185 176 174 165 144 143 151 158 174 188 195 205 194 192 195 190 176 191 209 209 197 197 196
128 112 50 338 334 359 163 170 155 136 131 162 182 259 304 341 337 278 241 239 226 178 166 148 143 152 162 167 167 174 183 200 188 158 171 182 186 184 200 216 206 195 196 194
108 124 175 206 229 239 251 216 166 142 166 204 218 243 288 301 294 287 253 214 201 200 186 174 177 184 179 176 176 176 187 192 168 154 166 185 202 202 202 194 188 193 191 191
93 170 230 244 254 244 239 235 198 195 197 203 228 226 252 251 247 251 234 204 184 207 208 205 206 203 195 193 196 196 202 197 184 175 190 216 215 198 183 176 181 188 186 193
62 165 259 291 291 266 262 261 225 217 210 218 235 255 256 259 239 247 225 205 213 222 227 219 208 203 207 210 211 208 209 203 179 191 218 219 194 183 188 187 178 174 178 173
86 123 116 274 305 331 271 250 220 212 204 190 219 241 255 254 249 241 228 213 219 224 222 217 216 216 215 211 207 210 211 192 180 200 221 212 196 193 199 185 160 177 184 178
156 140 145 266 -0 242 251 256 205 207 229 212 227 238 227 229 239 247 215 211 226 231 227 222 219 223 224 212 204 199 188 178 184 199 216 214 198 200 185 170 183 190 174 182
173 154 149 157 233 273 293 283 190 196 254 225 223 249 254 239 34 320 251 215 227 228 224 222 219 219 212 212 203 182 190 192 195 213 217 215 201 192 181 185 196 191 173 190
105 139 147 164 205 239 253 275 270 152 268 254 216 232 230 108 315 272 273 251 251 246 226 221 215 202 207 213 188 183 199 201 216 224 221 211 197 191 196 201 198 190 186 196
105 123 185 202 228 256 260 283 93 178 250 265 212 216 194 203 224 255 281 272 254 248 244 224 199 211 226 209 180 196 209 219 227 218 203 201 200 200 202 195 185 179 181 173
186 183 196 186 217 254 280 150 189 231 265 254 228 210 201 230 260 276 271 266 266 258 261 233 214 238 244 206 190 203 222 228 213 197 198 201 201 205 200 183 181 174 172 173
205 200 198 199 221 260 275 241 274 263 263 260 238 232 210 230 256 265 267 265 263 244 240 224 207 239 262 226 203 216 237 218 195 193 205 209 202 200 186 182 181 177 178 184
264 210 193 244 262 271 279 288 293 275 261 267 252 240 212 228 244 254 260 259 257 251 237 220 201 222 248 242 222 222 227 206 189 195 203 200 198 204 195 190 187 188 192 199
241 198 222 254 271 293 288 282 285 305 303 299 300 279 237 229 245 244 247 250 250 256 253 230 221 233 247 247 241 229 214 194 200 203 202 201 202 203 200 199 205 205 207 202
222 202 207 239 240 230 265 282 286 289 287 274 276 290 270 234 240 246 244 241 241 251 255 254 249 248 252 246 247 242 216 196 198 208 210 208 201 200 197 198 227 248 231 228
Height
1517 1523 1527 1526 1525 1526 1528 1532 1534 1531 1526 1529 1533 1533 1531 1531 1532 1532 1533 1533 1534 1536 1538 1539 1541 1542 1543 1544 1545 1546 1547 1548 1549 1549 1550 1551 1551 1552 1552 1553 1553 1553 1553 1553
1523 1526 1522 1520 1522 1524 1527 1532 1533 1529 1526 1529 1532 1532 1529 1529 1529 1529 1530 1531 1532 1534 1536 1538 1539 1541 1542 1544 1545 1546 1547 1548 1548 1549 1550 1551 1552 1552 1552 1553 1553 1553 1553 1554
1524 1522 1518 1520 1523 1526 1528 1531 1531 1531 1529 1529 1532 1534 1530 1527 1527 1528 1529 1529 1531 1532 1534 1536 1538 1539 1541 1542 1544 1545 1546 1547 1548 1549 1550 1551 1551 1551 1552 1552 1552 1553 1553 1553
1522 1519 1519 1521 1523 1524 1530 1523 1525 1528 1535 1540 1536 1547 1533 1528 1527 1525 1526 1527 1528 1530 1532 1534 1536 1537 1539 1541 1543 1544 1545 1547 1547 1548 1549 1550 1550 1550 1551 1551 1552 1552 1553 1553
1522 1519 1519 1522 1521 1520 1523 1521 1524 1528 1534 1541 1539 1545 1538 1529 1528 1524 1522 1523 1524 1527 1529 1531 1533 1535 1537 1539 1541 1543 1544 1545 1546 1547 1548 1549 1549 1550 1550 1551 1551 1552 1552 1553
1519 1517 1517 1517 1516 1518 1520 1524 1529 1535 1539 1549 1541 1545 1541 1532 1525 1520 1518 1519 1521 1524 1526 1529 1532 1534 1536 1538 1539 1541 1543 1544 1545 1546 1547 1548 1548 1549 1550 1550 1550 1551 1551 1552
1524 1519 1516 1515 1518 1519 1522 1535 1549 1550 1556 1552 1540 1542 1538 1522 1518 1517 1516 1516 1518 1521 1524 1526 1529 1531 1533 1535 1537 1539 1541 1542 1543 1545 1546 1547 1547 1548 1549 1549 1550 1550 1550 1551
1532 1532 1519 1516 1518 1522 1525 1531 1548 1556 1558 1552 1541 1543 1531 1519 1516 1514 1513 1514 1516 1519 1522 1524 1526 1529 1531 1533 1536 1537 1539 1540 1542 1543 1544 1545 1546 1547 1548 1548 1549 1549 1550 1550
1533 1531 1518 1515 1515 1518 1526 1531 1531 1544 1547 1551 1546 1537 1525 1517 1516 1514 1514 1514 1515 1517 1520 1522 1525 1527 1529 1531 1534 1535 1537 1539 1540 1541 1542 1543 1544 1545 1546 1547 1547 1548 1548 1549
1524 1530 1521 1517 1515 1518 1521 1527 1537 1543 1552 1556 1546 1541 1536 1522 1519 1516 1515 1515 1516 1517 1519 1521 1523 1525 1527 1530 1532 1534 1535 1537 1538 1539 1540 1541 1542 1543 1544 1545 1546 1546 1547 1547
1522 1529 1527 1521 1522 1524 1526 1529 1534 1542 1544 1553 1555 1544 1522 1520 1517 1517 1515 1515 1515 1517 1518 1520 1522 1524 1526 1528 1530 1532 1533 1535 1536 1537 1538 1539 1540 1541 1542 1543 1543 1544 1544 1545
1523 1530 1534 1527 1520 1518 1520 1524 1532 1541 1545 1547 1551 1543 1517 1516 1515 1515 1515 1515 1516 1517 1518 1520 1521 1523 1524 1526 1528 1530 1531 1533 1534 1535 1536 1537 1538 1539 1539 1540 1541 1541 1542 1542
1523 1531 1539 1535 1530 1523 1522 1523 1526 1532 1541 1548 1550 1539 1516 1515 1515 1515 1515 1515 1516 1516 1518 1519 1520 1521 1523 1525 1526 1528 1529 1530 1532 1533 1533 1535 1535 1536 1536 1537 1538 1538 1539 1540
1521 1529 1535 1538 1532 1526 1525 1522 1524 1530 1540 1543 1539 1530 1519 1516 1515 1515 1515 1515 1515 1516 1517 1518 1519 1520 1522 1523 1524 1526 1527 1528 1529 1530 1531 1531 1532 1533 1533 1534 1535 1535 1536 1537
1521 1529 1527 1525 1522 1522 1521 1520 1521 1524 1527 1532 1527 1525 1518 1515 1514 1514 1514 1514 1515 1515 1516 1517 1518 1519 1520 1522 1523 1524 1525 1526 1527 1528 1528 1529 1529 1530 1530 1531 1531 1532 1533 1533
1524 1527 1526 1525 1521 1521 1521 1518 1518 1519 1520 1522 1521 1520 1514 1512 1512 1512 1512 1513 1513 1514 1515 1516 1517 1518 1519 1520 1520 1521 1522 1523 1524 1525 1525 1526 1526 1527 1527 1528 1528 1529 1529 1530
1527 1528 1531 1532 1525 1521 1525 1517 1516 1516 1515 1516 1519 1515 1511 1511 1510 1510 1510 1510 1511 1512 1513 1514 1515 1516 1517 1517 1518 1519 1520 1521 1521 1522 1523 1523 1523 1523 1524 1524 1525 1525 1526 1527
1526 1530 1534 1534 1529 1531 1519 1509 1509 1511 1511 1511 1510 1509 1508 1508 1508 1508 1508 1509 1509 1509 1510 1511 1512 1513 1514 1515 1516 1517 1517 1518 1518 1519 1519 1520 1520 1520 1521 1521 1521 1522 1522 1523
1521 1527 1534 1537 1534 1527 1516 1509 1509 1510 1510 1507 1507 1506 1506 1506 1506 1506 1506 1507 1507 1507 1508 1509 1509 1510 1511 1512 1513 1513 1514 1515 1515 1515 1516 1516 1517 1517 1517 1517 1518 1518 1519 1520
1521 1524 1532 1535 1531 1528 1515 1506 1505 1508 1510 1504 1503 1503 1504 1505 1509 1506 1505 1505 1505 1505 1506 1506 1507 1507 1508 1508 1509 1510 1511 1511 1511 1512 1513 1513 1513 1514 1514 1514 1515 1515 1516 1517
1525 1527 1530 1531 1529 1521 1509 1505 1505 1515 1511 1502 1501 1501 1503 1504 1504 1503 1502 1502 1502 1503 1503 1504 1504 1504 1505 1505 1506 1506 1507 1507 1508 1509 1510 1510 1510 1510 1511 1511 1512 1512 1513 1513
1523 1525 1527 1528 1527 1521 1505 1505 1508 1506 1501 1500 1500 1500 1501 1501 1501 1500 1500 1500 1500 1500 1500 1501 1501 1501 1501 1502 1502 1502 1502 1503 1505 1505 1506 1506 1506 1507 1507 1507 1508 1509 1509 1510
1518 1517 1517 1517 1514 1507 1504 1503 1502 1502 1500 1499 1498 1498 1498 1498 1498 1498 1498 1498 1498 1497 1497 1497 1498 1497 1498 1499 1499 1498 1499 1500 1501 1501 1501 1502 1503 1503 1503 1504 1504 1505 1506 1506
1513 1511 1512 1511 1506 1503 1502 1500 1500 1500 1499 1498 1497 1497 1496 1496 1495 1495 1495 1494 1494 1494 1494 1494 1494 1494 1494 1494 1495 1495 1495 1496 1496 1496 1497 1497 1498 1499 1499 1500 1501 1501 1502 1502
1509 1509 1509 1507 1503 1501 1498 1498 1497 1497 1496 1495 1495 1494 1494 1493 1492 1492 1491 1491 1491 1491 1491 1491 1490 1490 1490 1490 1491 1491 1491 1492 1492 1492 1492 1493 1494 1494 1495 1496 1496 1497 1498 1499
1504 1505 1506 1503 1499 1499 1497 1496 1496 1495 1494 1493 1492 1492 1491 1490 1489 1489 1488 1488 1488 1487 1487 1487 1486 1486 1486 1486 1486 1486 1487 1487 1488 1488 1488 1488 1489 1490 1491 1492 1492 1493 1494 1495